Simultaneous Nadir Overpasses (SNOs) Predictions

Prediction of SNOs over PacNW region [( 10.00, 139.50) to ( 22.70, 165.60)] between AQUA and NPP Satellites:

Table of predicted SNOs over PacNW region for the next 30.0 days since TLE Epoch: 6/5/2020
Index Date (AQUA) Time (AQUA) AQUA Lat,Lon Date (NPP) Time (NPP) NPP Lat,Lon Distance(km) Time Diff (sec)
1 06/09/2020 15:59:27 22.61, 147.49 06/09/2020 16:01:22 23.25, 144.63 300.99 115
2 06/17/2020 15:10:00 22.60, 159.85 06/17/2020 15:10:36 23.15, 157.31 266.88 36
3 06/25/2020 15:59:25 22.62, 147.49 06/25/2020 16:01:17 23.22, 144.66 297.99 112




NCC Satellite Simultaneous Nadir Overpasses (SNOs) Prediction Service
